This is the latest recevied weather packets stored in our database for station/object KI4BIY. If no packets are shown the sender has not sent any weather packets the latest 1 day(s).
| Time | Temp. | Humidity | Pressure | Rain* | Wind** | Luminosity | Snow |
|---|---|---|---|---|---|---|---|
| 1778051650 | 12.22° C | 99% | 1008.4 hPa | 1.27 mm | - | 0 W/m² | - |
| 1778051346 | 12.22° C | 99% | 1007.7 hPa | 0 mm | - | 0 W/m² | - |
| 1778050438 | 12.22° C | 99% | 1007.8 hPa | 0 mm | - | 0 W/m² | - |
| 1778050135 | 12.22° C | 99% | 1008.1 hPa | 0 mm | - | 0 W/m² | - |
| 1778049830 | 12.78° C | 99% | 1008.5 hPa | 0 mm | - | 0 W/m² | - |
| 1778049528 | 12.78° C | 99% | 1008.3 hPa | 0 mm | - | 0 W/m² | - |
| 1778048621 | 12.78° C | 99% | 1007.6 hPa | 36.58 mm | - | 0 W/m² | - |
| 1778047106 | 13.33° C | 99% | 1007 hPa | 19.81 mm | - | 0 W/m² | - |
| 1778046803 | 13.33° C | 99% | 1006.3 hPa | 21.59 mm | - | 0 W/m² | - |
| 1778046500 | 14.44° C | 98% | 1006.5 hPa | 6.1 mm | - | 0 W/m² | - |
| 1778045893 | 18.89° C | 99% | 1005.7 hPa | 0 mm | - | 0 W/m² | - |
| 1778045592 | 19.44° C | 99% | 1005.4 hPa | 0 mm | - | 0 W/m² | - |
| 1778044988 | 19.44° C | 99% | 1005.2 hPa | 0 mm | - | 0 W/m² | - |
| 1778044685 | 18.89° C | 99% | 1005.4 hPa | 0 mm | - | 0 W/m² | - |
| 1778044381 | 18.89° C | 99% | 1005.4 hPa | 0 mm | - | 0 W/m² | - |
| 1778044079 | 18.89° C | 99% | 1005.4 hPa | 0 mm | - | 0 W/m² | - |
| 1778043776 | 18.89° C | 99% | 1005.7 hPa | 0 mm | - | 0 W/m² | - |
| 1778043472 | 18.89° C | 99% | 1005.7 hPa | 0 mm | - | 0 W/m² | - |
| 1778042867 | 18.89° C | 99% | 1006.1 hPa | 0 mm | - | 0 W/m² | - |
| 1778042564 | 18.89° C | 99% | 1006.1 hPa | 0 mm | - | 0 W/m² | - |
| 1778042261 | 18.89° C | 99% | 1006 hPa | 0 mm | - | 0 W/m² | - |
| 1778041657 | 18.89° C | 99% | 1005.9 hPa | 0 mm | - | 0 W/m² | - |
| 1778040750 | 18.89° C | 99% | 1006 hPa | 0 mm | - | 0 W/m² | - |
| 1778040448 | 18.89° C | 99% | 1006.1 hPa | 0 mm | - | 0 W/m² | - |
| 1778039841 | 18.89° C | 99% | 1006.3 hPa | 0 mm | - | 0 W/m² | - |
* Rain latest hour (hover to see other rain measurements)
** Current wind speed in m/s (hover to see current wind gust speed)